Location: Saint-Usage
(47.1052°N, 5.2587°E)
Time: 11:22:07
(UTC+01:00)

NOAA 19 - Pass Details

Date: 03 December 2021
Orbit: 841 x 860 km, 99.2° (Epoch: 23 January)

Event Time Altitude Azimuth Distance (km) Brightness Sun altitude
Rises 18:05:22 0° 130° (SE) 3,388 8.0 -12.2°
Reaches altitude 10° 18:08:00 10° 119° (ESE) 2,458 7.2 -12.7°
Maximum altitude 18:12:35 29° 62° (ENE) 1,510 6.0 -13.4°
Drops below altitude 10° 18:17:13 10° 4° (N) 2,478 7.4 -14.2°
Sets 18:19:52 0° 354° (N) 3,420 8.3 -14.6°
